Time,TemperatureF,DewpointF,PressureIn,WindDirection,WindDirectionDegrees,WindSpeedMPH,WindSpeedGustMPH,Humidity,HourlyPrecipIn,Conditions,Clouds,dailyrainin,SoftwareType,DateUTC
2013-04-09 00:10:00,56.0,38.6,29.92,SSE,148,2.0,5.0,52,0.00,OVC,,0.00,WeatherDisplay:10.37,2013-04-09 04:10:00,
2013-04-09 00:30:00,56.3,39.4,29.91,South,170,1.0,6.0,53,0.00,OVC,,0.00,WeatherDisplay:10.37,2013-04-09 04:30:00,
2013-04-09 00:40:00,56.9,40.4,29.91,SSE,148,7.0,9.0,54,0.00,OVC,,0.00,WeatherDisplay:10.37,2013-04-09 04:40:00,
2013-04-09 00:50:00,57.5,41.0,29.90,SSE,157,7.0,11.0,54,0.00,OVC,,0.00,WeatherDisplay:10.37,2013-04-09 04:50:00,
2013-04-09 01:00:00,58.2,41.6,29.89,SE,136,12.0,12.0,54,0.00,OVC,,0.00,WeatherDisplay:10.37,2013-04-09 05:00:00,
2013-04-09 01:10:00,58.7,42.1,29.89,SSE,148,14.0,17.0,54,0.00,OVC,,0.00,WeatherDisplay:10.37,2013-04-09 05:10:00,
2013-04-09 01:20:00,58.9,42.8,29.88,SE,145,14.0,17.0,55,0.00,OVC,,0.00,WeatherDisplay:10.37,2013-04-09 05:20:00,
2013-04-09 01:30:00,58.8,42.7,29.87,SSE,152,13.0,18.0,55,0.00,OVC,,0.00,WeatherDisplay:10.37,2013-04-09 05:30:00,
2013-04-09 01:40:00,59.1,43.4,29.89,SSE,160,6.0,15.0,56,0.00,OVC,,0.00,WeatherDisplay:10.37,2013-04-09 05:40:00,
2013-04-09 01:50:00,58.6,42.9,29.91,NW,306,14.0,20.0,56,0.00,OVC,,0.00,WeatherDisplay:10.37,2013-04-09 05:50:00,
2013-04-09 02:00:00,57.6,43.8,29.92,WNW,282,8.0,14.0,60,0.00,OVC,,0.00,WeatherDisplay:10.37,2013-04-09 06:00:00,
2013-04-09 02:10:00,56.2,45.4,29.88,WSW,247,1.0,8.0,67,0.01,-RA,,0.01,WeatherDisplay:10.37,2013-04-09 06:10:00,
2013-04-09 02:20:00,54.5,45.6,29.86,WSW,246,2.0,5.0,72,0.00,-RA,,0.01,WeatherDisplay:10.37,2013-04-09 06:20:00,
2013-04-09 02:30:00,54.2,44.7,29.88,South,179,5.0,6.0,70,0.00,-RA,,0.01,WeatherDisplay:10.37,2013-04-09 06:30:00,
2013-04-09 02:40:00,53.9,45.8,29.86,South,174,7.0,8.0,74,0.01,-RA,,0.02,WeatherDisplay:10.37,2013-04-09 06:40:00,
2013-04-09 02:50:00,53.9,45.8,29.85,SSE,155,10.0,17.0,74,0.00,-RA,,0.02,WeatherDisplay:10.37,2013-04-09 06:50:00,
2013-04-09 03:00:00,54.4,45.9,29.85,SSE,148,12.0,18.0,73,0.00,-RA,,0.02,WeatherDisplay:10.37,2013-04-09 07:00:00,
2013-04-09 03:10:00,54.7,45.5,29.84,SSE,150,12.0,17.0,71,0.00,-RA,,0.02,WeatherDisplay:10.37,2013-04-09 07:10:00,
2013-04-09 03:20:00,55.0,45.4,29.83,SE,146,12.0,14.0,70,0.00,-RA,,0.02,WeatherDisplay:10.37,2013-04-09 07:20:00,
2013-04-09 03:30:00,55.2,46.0,29.83,SSE,147,10.0,17.0,71,0.00,-RA,,0.02,WeatherDisplay:10.37,2013-04-09 07:30:00,
2013-04-09 03:40:00,55.6,46.3,29.82,SSE,151,20.0,21.0,71,0.00,-RA,,0.02,WeatherDisplay:10.37,2013-04-09 07:40:00,
2013-04-09 03:50:00,55.9,46.3,29.83,SE,146,12.0,20.0,70,0.00,-RA,,0.02,WeatherDisplay:10.37,2013-04-09 07:50:00,
2013-04-09 04:00:00,55.9,46.3,29.82,SSE,156,10.0,21.0,70,0.00,-RA,,0.02,WeatherDisplay:10.37,2013-04-09 08:00:00,
2013-04-09 04:10:00,55.8,46.2,29.82,SSE,156,7.0,17.0,70,0.00,BKN,,0.02,WeatherDisplay:10.37,2013-04-09 08:10:00,
2013-04-09 04:20:00,55.7,46.4,29.82,SSE,158,13.0,18.0,71,0.00,BKN,,0.02,WeatherDisplay:10.37,2013-04-09 08:20:00,
2013-04-09 04:30:00,55.7,46.1,29.83,SSE,156,9.0,23.0,70,0.00,BKN,,0.02,WeatherDisplay:10.37,2013-04-09 08:30:00,
2013-04-09 04:40:00,55.5,46.2,29.82,SSE,152,13.0,18.0,71,0.00,BKN,,0.02,WeatherDisplay:10.37,2013-04-09 08:40:00,
2013-04-09 04:50:00,55.5,46.6,29.82,SSE,158,8.0,18.0,72,0.00,BKN,,0.02,WeatherDisplay:10.37,2013-04-09 08:50:00,
2013-04-09 05:00:00,55.5,46.6,29.82,SSE,157,13.0,17.0,72,0.00,BKN,,0.02,WeatherDisplay:10.37,2013-04-09 09:00:00,
2013-04-09 05:10:00,55.5,47.0,29.82,SSE,155,10.0,14.0,73,0.00,SCT,,0.02,WeatherDisplay:10.37,2013-04-09 09:10:00,
2013-04-09 05:20:00,55.5,47.0,29.83,South,169,9.0,15.0,73,0.00,SCT,,0.02,WeatherDisplay:10.37,2013-04-09 09:20:00,
2013-04-09 05:30:00,55.7,47.2,29.82,SSE,153,14.0,23.0,73,0.00,SCT,,0.02,WeatherDisplay:10.37,2013-04-09 09:30:00,
2013-04-09 05:40:00,56.0,47.5,29.82,SSE,158,10.0,17.0,73,0.00,SCT,,0.02,WeatherDisplay:10.37,2013-04-09 09:40:00,
2013-04-09 05:50:00,55.8,47.6,29.82,SSE,159,10.0,18.0,74,0.00,SCT,,0.02,WeatherDisplay:10.37,2013-04-09 09:50:00,
2013-04-09 06:00:00,55.5,47.3,29.82,SSE,152,8.0,12.0,74,0.00,SCT,,0.02,WeatherDisplay:10.37,2013-04-09 10:00:00,
2013-04-09 06:10:00,55.2,47.4,29.82,SSE,156,5.0,12.0,75,0.00,SCT,,0.02,WeatherDisplay:10.37,2013-04-09 10:10:00,
2013-04-09 06:20:00,55.0,47.6,29.82,SSE,163,5.0,9.0,76,0.00,SCT,,0.02,WeatherDisplay:10.37,2013-04-09 10:20:00,
2013-04-09 06:30:00,55.1,47.7,29.82,SSE,164,8.0,11.0,76,0.00,SCT,,0.02,WeatherDisplay:10.37,2013-04-09 10:30:00,
2013-04-09 06:40:00,55.1,47.7,29.83,South,169,5.0,12.0,76,0.00,SCT,,0.02,WeatherDisplay:10.37,2013-04-09 10:40:00,
2013-04-09 06:50:00,55.0,47.6,29.85,West,260,13.0,13.0,76,0.00,SCT,,0.02,WeatherDisplay:10.37,2013-04-09 10:50:00,
2013-04-09 07:00:00,55.0,47.3,29.86,West,268,6.0,17.0,75,0.00,SCT,,0.02,WeatherDisplay:10.37,2013-04-09 11:00:00,
2013-04-09 07:10:00,55.1,47.3,29.87,WNW,286,0.0,9.0,75,0.00,SCT,,0.02,WeatherDisplay:10.37,2013-04-09 11:10:00,
2013-04-09 07:20:00,55.6,47.8,29.87,SW,220,2.0,9.0,75,0.00,SCT,,0.02,WeatherDisplay:10.37,2013-04-09 11:20:00,
2013-04-09 07:30:00,55.7,47.9,29.88,SW,231,0.0,5.0,75,0.00,SCT,,0.02,WeatherDisplay:10.37,2013-04-09 11:30:00,
2013-04-09 07:40:00,56.0,48.5,29.88,SW,230,0.0,5.0,76,0.00,SCT,,0.02,WeatherDisplay:10.37,2013-04-09 11:40:00,
2013-04-09 07:50:00,56.7,48.5,29.89,WSW,238,1.0,5.0,74,0.00,SCT,,0.02,WeatherDisplay:10.37,2013-04-09 11:50:00,
2013-04-09 08:00:00,57.7,48.8,29.90,WNW,299,5.0,6.0,72,0.00,SCT,,0.02,WeatherDisplay:10.37,2013-04-09 12:00:00,
2013-04-09 08:10:00,59.2,48.7,29.90,WNW,297,5.0,12.0,68,0.00,SCT,,0.02,WeatherDisplay:10.37,2013-04-09 12:10:00,
2013-04-09 08:20:00,59.5,48.9,29.91,NW,313,6.0,11.0,68,0.00,SCT,,0.02,WeatherDisplay:10.37,2013-04-09 12:20:00,
2013-04-09 08:30:00,58.7,48.2,29.91,NW,320,9.0,12.0,68,0.00,SCT,,0.02,WeatherDisplay:10.37,2013-04-09 12:30:00,
2013-04-09 08:40:00,60.0,49.0,29.91,NW,313,10.0,12.0,67,0.00,SCT,,0.02,WeatherDisplay:10.37,2013-04-09 12:40:00,
2013-04-09 08:50:00,60.2,48.4,29.93,WNW,287,16.0,18.0,65,0.00,SCT,,0.02,WeatherDisplay:10.37,2013-04-09 12:50:00,
2013-04-09 09:00:00,58.6,47.6,29.94,WNW,288,21.0,25.0,67,0.00,BKN,,0.02,WeatherDisplay:10.37,2013-04-09 13:00:00,
2013-04-09 09:10:00,57.3,47.6,29.95,WNW,286,16.0,27.0,70,0.00,BKN,,0.02,WeatherDisplay:10.37,2013-04-09 13:10:00,
2013-04-09 09:20:00,56.6,47.3,29.97,NW,306,10.0,27.0,71,0.00,BKN,,0.02,WeatherDisplay:10.37,2013-04-09 13:20:00,
2013-04-09 09:30:00,55.9,46.7,29.98,WNW,301,18.0,24.0,71,0.00,BKN,,0.02,WeatherDisplay:10.37,2013-04-09 13:30:00,
2013-04-09 09:40:00,54.8,46.0,29.99,WNW,290,13.0,21.0,72,0.00,BKN,,0.02,WeatherDisplay:10.37,2013-04-09 13:40:00,
2013-04-09 09:50:00,54.1,45.6,29.99,West,272,16.0,27.0,73,0.00,BKN,,0.02,WeatherDisplay:10.37,2013-04-09 13:50:00,
2013-04-09 10:00:00,54.0,45.2,29.99,West,276,9.0,24.0,72,0.00,SCT,,0.02,WeatherDisplay:10.37,2013-04-09 14:00:00,
2013-04-09 10:10:00,55.9,46.7,29.99,WNW,287,22.0,27.0,71,0.00,SCT,,0.02,WeatherDisplay:10.37,2013-04-09 14:10:00,
2013-04-09 10:20:00,56.7,45.8,30.00,West,272,29.0,33.0,67,0.00,SCT,,0.02,WeatherDisplay:10.37,2013-04-09 14:20:00,
2013-04-09 10:30:00,56.7,46.2,30.00,WNW,297,18.0,38.0,68,0.00,SCT,,0.02,WeatherDisplay:10.37,2013-04-09 14:30:00,
2013-04-09 10:40:00,56.8,46.0,30.00,WNW,288,14.0,33.0,67,0.00,SCT,,0.02,WeatherDisplay:10.37,2013-04-09 14:40:00,
2013-04-09 10:50:00,57.2,46.0,30.00,WNW,287,20.0,29.0,66,0.00,SCT,,0.02,WeatherDisplay:10.37,2013-04-09 14:50:00,
2013-04-09 11:00:00,56.4,45.5,30.00,WNW,301,20.0,23.0,67,0.00,SCT,,0.02,WeatherDisplay:10.37,2013-04-09 15:00:00,
2013-04-09 11:10:00,55.4,45.0,30.02,West,281,16.0,24.0,68,0.00,SCT,,0.02,WeatherDisplay:10.37,2013-04-09 15:10:00,
2013-04-09 11:20:00,55.1,45.1,30.02,West,268,10.0,15.0,69,0.00,SCT,,0.02,WeatherDisplay:10.37,2013-04-09 15:20:00,
2013-04-09 11:30:00,54.7,45.1,30.03,WNW,290,8.0,24.0,70,0.00,SCT,,0.02,WeatherDisplay:10.37,2013-04-09 15:30:00,
2013-04-09 11:50:00,55.1,44.0,30.03,West,272,22.0,30.0,66,0.00,SCT,,0.02,WeatherDisplay:10.37,2013-04-09 15:50:00,
2013-04-09 12:00:00,54.2,43.9,30.03,WNW,290,14.0,20.0,68,0.00,SCT,,0.02,WeatherDisplay:10.37,2013-04-09 16:00:00,
2013-04-09 12:10:00,54.4,44.0,30.03,NW,310,14.0,18.0,68,0.00,BKN,,0.02,WeatherDisplay:10.37,2013-04-09 16:10:00,
2013-04-09 12:20:00,54.1,43.8,30.03,WNW,290,18.0,21.0,68,0.00,BKN,,0.02,WeatherDisplay:10.37,2013-04-09 16:20:00,
2013-04-09 12:30:00,54.7,44.0,30.03,NW,315,18.0,25.0,67,0.00,BKN,,0.02,WeatherDisplay:10.37,2013-04-09 16:30:00,
2013-04-09 12:40:00,55.1,43.5,30.02,WNW,287,15.0,27.0,65,0.00,BKN,,0.02,WeatherDisplay:10.37,2013-04-09 16:40:00,
2013-04-09 12:50:00,56.4,44.3,30.03,WNW,301,22.0,23.0,64,0.00,BKN,,0.02,WeatherDisplay:10.37,2013-04-09 16:50:00,
2013-04-09 13:00:00,54.2,43.1,30.04,NW,304,22.0,38.0,66,0.00,BKN,,0.02,WeatherDisplay:10.37,2013-04-09 17:00:00,
2013-04-09 13:10:00,55.2,43.6,30.04,WNW,296,18.0,30.0,65,0.00,BKN,,0.02,WeatherDisplay:10.37,2013-04-09 17:10:00,
2013-04-09 13:20:00,56.1,43.3,30.03,West,273,16.0,29.0,62,0.00,BKN,,0.02,WeatherDisplay:10.37,2013-04-09 17:20:00,
2013-04-09 13:30:00,56.4,43.5,30.03,WNW,303,17.0,32.0,62,0.00,BKN,,0.02,WeatherDisplay:10.37,2013-04-09 17:30:00,
2013-04-09 13:40:00,56.6,44.1,30.03,WNW,301,15.0,30.0,63,0.00,BKN,,0.02,WeatherDisplay:10.37,2013-04-09 17:40:00,
2013-04-09 13:50:00,56.6,43.3,30.04,WNW,296,15.0,30.0,61,0.00,BKN,,0.02,WeatherDisplay:10.37,2013-04-09 17:50:00,
2013-04-09 14:00:00,56.4,43.6,30.03,WNW,289,25.0,33.0,62,0.00,BKN,,0.02,WeatherDisplay:10.37,2013-04-09 18:00:00,
2013-04-09 14:10:00,57.2,43.9,30.03,WNW,288,14.0,24.0,61,0.00,BKN,,0.02,WeatherDisplay:10.37,2013-04-09 18:10:00,
2013-04-09 14:20:00,57.1,43.4,30.03,West,281,16.0,29.0,60,0.00,BKN,,0.02,WeatherDisplay:10.37,2013-04-09 18:20:00,
2013-04-09 14:30:00,58.2,44.8,30.03,WNW,289,16.0,17.0,61,0.00,BKN,,0.02,WeatherDisplay:10.37,2013-04-09 18:30:00,
2013-04-09 14:40:00,57.8,43.6,30.02,West,271,14.0,25.0,59,0.00,BKN,,0.02,WeatherDisplay:10.37,2013-04-09 18:40:00,
2013-04-09 14:50:00,58.2,43.5,30.01,NW,322,23.0,25.0,58,0.00,BKN,,0.02,WeatherDisplay:10.37,2013-04-09 18:50:00,
2013-04-09 15:00:00,57.4,44.0,30.01,West,275,8.0,24.0,61,0.00,BKN,,0.02,WeatherDisplay:10.37,2013-04-09 19:00:00,
2013-04-09 15:10:00,58.1,44.3,30.02,NW,306,10.0,23.0,60,0.00,BKN,,0.02,WeatherDisplay:10.37,2013-04-09 19:10:00,
2013-04-09 15:20:00,58.1,44.3,30.02,WNW,292,12.0,24.0,60,0.00,BKN,,0.02,WeatherDisplay:10.37,2013-04-09 19:20:00,
2013-04-09 15:30:00,57.5,43.3,30.01,NW,309,13.0,24.0,59,0.00,BKN,,0.02,WeatherDisplay:10.37,2013-04-09 19:30:00,
2013-04-09 15:40:00,57.3,43.1,30.00,NW,315,17.0,18.0,59,0.00,BKN,,0.02,WeatherDisplay:10.37,2013-04-09 19:40:00,
2013-04-09 15:50:00,58.2,44.4,30.00,NW,310,13.0,21.0,60,0.00,BKN,,0.02,WeatherDisplay:10.37,2013-04-09 19:50:00,
2013-04-09 16:00:00,58.7,43.5,30.00,WNW,300,7.0,14.0,57,0.00,BKN,,0.02,WeatherDisplay:10.37,2013-04-09 20:00:00,
2013-04-09 16:10:00,58.6,43.9,30.00,NW,316,12.0,18.0,58,0.00,BKN,,0.02,WeatherDisplay:10.37,2013-04-09 20:10:00,
2013-04-09 16:20:00,60.3,44.5,30.00,NW,314,10.0,18.0,56,0.00,BKN,,0.02,WeatherDisplay:10.37,2013-04-09 20:20:00,
2013-04-09 16:30:00,59.8,43.5,30.00,WNW,296,9.0,14.0,55,0.00,BKN,,0.02,WeatherDisplay:10.37,2013-04-09 20:30:00,
2013-04-09 16:40:00,59.6,43.9,30.01,NW,311,13.0,15.0,56,0.00,BKN,,0.02,WeatherDisplay:10.37,2013-04-09 20:40:00,
2013-04-09 16:50:00,60.3,43.6,30.00,NW,315,8.0,14.0,54,0.00,BKN,,0.02,WeatherDisplay:10.37,2013-04-09 20:50:00,
2013-04-09 17:00:00,59.7,43.5,30.00,NW,313,7.0,14.0,55,0.00,BKN,,0.02,WeatherDisplay:10.37,2013-04-09 21:00:00,
2013-04-09 17:10:00,59.1,43.8,30.00,NNW,336,8.0,12.0,57,0.00,BKN,,0.02,WeatherDisplay:10.37,2013-04-09 21:10:00,
2013-04-09 17:20:00,59.1,43.4,30.00,WNW,296,9.0,12.0,56,0.00,BKN,,0.02,WeatherDisplay:10.37,2013-04-09 21:20:00,
2013-04-09 17:30:00,59.6,43.4,30.00,NW,325,12.0,17.0,55,0.00,BKN,,0.02,WeatherDisplay:10.37,2013-04-09 21:30:00,
2013-04-09 17:40:00,58.5,43.3,30.00,NW,315,10.0,15.0,57,0.00,BKN,,0.02,WeatherDisplay:10.37,2013-04-09 21:40:00,
2013-04-09 18:00:00,58.2,43.4,30.00,NW,319,7.0,9.0,58,0.00,BKN,,0.02,WeatherDisplay:10.37,2013-04-09 22:00:00,
2013-04-09 18:10:00,57.6,42.9,30.00,NNW,329,10.0,11.0,58,0.00,BKN,,0.02,WeatherDisplay:10.37,2013-04-09 22:10:00,
2013-04-09 18:20:00,56.9,43.2,30.00,NW,320,5.0,11.0,60,0.00,BKN,,0.02,WeatherDisplay:10.37,2013-04-09 22:20:00,
2013-04-09 18:40:00,56.5,43.2,29.98,NNW,340,8.0,8.0,61,0.00,BKN,,0.02,WeatherDisplay:10.37,2013-04-09 22:40:00,
2013-04-09 18:50:00,56.4,43.1,29.98,North,0,3.0,8.0,61,0.00,BKN,,0.02,WeatherDisplay:10.37,2013-04-09 22:50:00,
2013-04-09 19:00:00,55.9,42.6,29.99,NNW,342,3.0,6.0,61,0.00,BKN,,0.02,WeatherDisplay:10.37,2013-04-09 23:00:00,
2013-04-09 19:10:00,55.3,42.5,30.00,North,355,1.0,5.0,62,0.00,BKN,,0.02,WeatherDisplay:10.37,2013-04-09 23:10:00,
2013-04-09 19:20:00,55.3,42.5,30.00,North,350,0.0,5.0,62,0.00,BKN,,0.02,WeatherDisplay:10.37,2013-04-09 23:20:00,
2013-04-09 19:30:00,54.6,42.3,30.00,NW,322,0.0,8.0,63,0.00,BKN,,0.02,WeatherDisplay:10.37,2013-04-09 23:30:00,
2013-04-09 19:40:00,54.0,42.5,30.00,NNW,340,0.0,3.0,65,0.00,BKN,,0.02,WeatherDisplay:10.37,2013-04-09 23:40:00,
2013-04-09 19:50:00,53.3,42.3,30.00,NNW,340,0.0,2.0,66,0.00,BKN,,0.02,WeatherDisplay:10.37,2013-04-09 23:50:00,
2013-04-09 20:00:00,52.7,42.4,30.00,NNW,339,2.0,5.0,68,0.00,BKN,,0.02,WeatherDisplay:10.37,2013-04-10 00:00:00,
2013-04-09 20:10:00,52.5,42.6,30.00,NNW,339,0.0,5.0,69,0.00,OVC,,0.02,WeatherDisplay:10.37,2013-04-10 00:10:00,
2013-04-09 20:20:00,52.9,42.6,30.00,NNW,339,0.0,2.0,68,0.00,OVC,,0.02,WeatherDisplay:10.37,2013-04-10 00:20:00,
2013-04-09 20:30:00,53.0,43.1,29.99,NNW,339,0.0,0.0,69,0.00,OVC,,0.02,WeatherDisplay:10.37,2013-04-10 00:30:00,
2013-04-09 20:40:00,53.2,42.9,30.01,NNW,339,0.0,2.0,68,0.00,OVC,,0.02,WeatherDisplay:10.37,2013-04-10 00:40:00,
2013-04-09 20:50:00,52.6,42.7,30.00,NNW,339,0.0,2.0,69,0.00,OVC,,0.02,WeatherDisplay:10.37,2013-04-10 00:50:00,
2013-04-09 21:00:00,52.4,43.3,30.01,NNW,339,0.0,2.0,71,0.00,OVC,,0.02,WeatherDisplay:10.37,2013-04-10 01:00:00,
2013-04-09 21:10:00,52.6,42.7,30.00,NNW,339,0.0,0.0,69,0.00,OVC,,0.02,WeatherDisplay:10.37,2013-04-10 01:10:00,
2013-04-09 21:20:00,52.1,42.6,30.00,NNW,339,0.0,3.0,70,0.00,OVC,,0.02,WeatherDisplay:10.37,2013-04-10 01:20:00,
2013-04-09 21:30:00,52.2,42.7,29.99,NNW,339,0.0,0.0,70,0.00,OVC,,0.02,WeatherDisplay:10.37,2013-04-10 01:30:00,
2013-04-09 21:40:00,52.4,42.5,30.00,NNW,339,1.0,3.0,69,0.00,OVC,,0.02,WeatherDisplay:10.37,2013-04-10 01:40:00,
2013-04-09 23:00:00,52.2,42.7,29.99,NNW,341,0.0,3.0,70,0.02,RA,,0.02,WeatherDisplay:10.37,2013-04-10 03:00:00,
2013-04-09 23:40:00,51.9,44.2,29.96,North,0,0.0,3.0,75,0.00,CLR,,0.02,WeatherDisplay:10.37,2013-04-10 03:40:00,
2013-04-09 23:50:00,51.9,44.2,29.96,North,0,0.0,3.0,75,0.00,CLR,,0.02,WeatherDisplay:10.37,2013-04-10 03:50:00,